Aérodrome :
LOGIN :

S'inscrire | Disclaimer

   EN    FR    IT 

 










Légende :    VFR   VFR Marginal   IFR   IFR Intensif   IFR Très Intensif
Visi : 
Plafond : 
>= 8 km
>= 3000ft
5 à 8 km
1000 à 3000 ft
1500m à 5 km
500 à 1000 ft
800 à 1500m
200 à 500 ft
< 800m
< 200 ft
Symboles :   Orages  Brouillard  Fortes neiges  Fortes précipitations  Vent > 20 kt
SIGMETs :   Divers  Orages  Givrage  Turbulence  Onde Orograph.  Cendres Volcan.







- Altitude de l'aérodrome : 147 ft
- Code IATA : DUS


EDDL - Düsseldorf Int.

DERNIER METAR :
  • 211920Z 32004KT 280V340 9999 FEW045 22/14 Q1022 NOSIG

METARs EXPIRÉS :
  • 211850Z 33003KT 9999 FEW046 23/14 Q1022 NOSIG
  • 211820Z 32005KT 9999 FEW046 23/14 Q1022 NOSIG
  • 211750Z 32005KT 9999 FEW046 24/14 Q1021 NOSIG
  • 211720Z 34005KT 9999 FEW046 24/14 Q1021 NOSIG
  • 211650Z 29006KT 250V330 9999 FEW046 25/14 Q1021 NOSIG

TAF TAF EDDL
Valide du 21 à 18h jusqu'au 23 à 00h UTC


211700Z 2118/2224 32006KT CAVOK
BECMG 2118/2121 VRB03KT
BECMG 2204/2206 18006KT
BECMG 2209/2212 26009KT
BECMG 2218/2221 VRB03KT
Pas de NOTAMs connus pour ce terrain.



MET'MAP, la Météo Aéronautique d'un coup d'oeil ! - Copyright ORBIFLY Décembre 2007 - Disclaimer

ORBIFLY MET'MAP TEAM :

Programmation & Développement : Alexandra Zaïnal
Conception & Développement : Baudouin d'Aumeries
Co-Programmation & Développement : Marc-Olivier Méhu
Soutien technique & logistique : Manuel Goepfert

Contact : metmap@orbifly.com




SOURCES & CREDITS :

   NOAA